Mackinac Island, MI

12:08 AM EDT on June 25, 2017 (GMT -0400)
Mackinac Island

Weather History for KMCD - January, 2014

Change the Weather History Date:

Sunday, January 5, 2014

  Actual Average Record
Temperature  
Mean Temperature 15 °F -  
Max Temperature 19 °F 25 °F 44 °F (2007)
Min Temperature 11 °F 15 °F -3 °F (1978)
Degree Days  
Heating Degree Days 50    
Moisture  
Dew Point 9 °F    
Average Humidity 78    
Maximum Humidity 88    
Minimum Humidity 62    
Precipitation  
Precipitation 0.00 in - - ()
Sea Level Pressure  
Sea Level Pressure 30.00 in    
Wind  
Wind Speed 7 mph (NW)    
Max Wind Speed 17 mph    
Max Gust Speed 26 mph    
Visibility 10 miles    
Events Snow    
Averages and records for this station are not official NWS values.
T = Trace of Precipitation, MM = Missing Value Source: NWS Daily Summary

Daily Weather History Graph

Daily Weather History Graph

Search for Another Location

Airport or City:

Trip Planner

Search our weather history database for the weather conditions in past years. The results will help you decide how hot, cold, wet, or windy it might be!

Date:

Astronomy

Jan. 05, 2014 Rise Set
Actual Time 8:19 AM EST 5:08 PM EST
Civil Twilight 7:45 AM EST 5:42 PM EST
Nautical Twilight 7:08 AM EST 6:20 PM EST
Astronomical Twilight 6:32 AM EST 6:56 PM EST
Moon 10:44 AM EST (1/5) 10:54 PM EST (1/5)
Length of Visible Light 9h 57m
Length of Day
8h 48m
Waxing Crescent, 24% of the Moon is Illuminated
Jan 5
Waxing Crescent
Jan 7
First Quarter
Jan 15
Full
Jan 24
Last Quarter
Jan 30
New

Hourly Weather History & Observations

Time (EST) Temp. Windchill Dew Point Humidity Pressure Visibility Wind Dir Wind Speed Gust Speed Precip Events Conditions
12:15 AM 17.1 °F 7.6 °F 13.1 °F 84% 30.00 in 10.0 mi West 6.9 mph - N/A   Scattered Clouds
12:36 AM 16.0 °F 6.3 °F 12.4 °F 86% 30.00 in 10.0 mi West 6.9 mph - N/A   Clear
12:55 AM 15.6 °F 7.0 °F 12.2 °F 86% 30.00 in 10.0 mi West 5.8 mph - N/A   Clear
1:15 AM 15.3 °F 5.4 °F 12.2 °F 88% 30.00 in 10.0 mi West 6.9 mph - N/A   Scattered Clouds
1:36 AM 15.3 °F 7.9 °F 12.0 °F 87% 30.00 in 10.0 mi West 4.6 mph - N/A   Mostly Cloudy
1:55 AM 15.6 °F 5.9 °F 12.2 °F 86% 30.01 in 10.0 mi West 6.9 mph - N/A   Overcast
2:15 AM 15.6 °F 8.3 °F 12.2 °F 86% 30.02 in 10.0 mi West 4.6 mph - N/A   Overcast
2:36 AM 15.6 °F 5.9 °F 11.3 °F 83% 30.03 in 10.0 mi West 6.9 mph - N/A   Mostly Cloudy
2:55 AM 15.6 °F 5.9 °F 11.8 °F 85% 30.05 in 10.0 mi West 6.9 mph - N/A   Overcast
3:15 AM 15.1 °F 5.2 °F 11.3 °F 85% 30.05 in 10.0 mi West 6.9 mph - N/A   Overcast
3:36 AM 14.9 °F 5.0 °F 11.1 °F 85% 30.06 in 10.0 mi West 6.9 mph - N/A   Overcast
3:55 AM 14.7 °F 4.8 °F 10.9 °F 85% 30.05 in 10.0 mi West 6.9 mph - N/A   Overcast
4:15 AM 14.9 °F 6.1 °F 11.1 °F 85% 30.05 in 10.0 mi WNW 5.8 mph - N/A   Overcast
4:36 AM 14.9 °F 5.0 °F 11.3 °F 86% 30.05 in 10.0 mi WNW 6.9 mph - N/A   Overcast
4:55 AM 14.9 °F 5.0 °F 11.1 °F 85% 30.05 in 10.0 mi West 6.9 mph - N/A   Overcast
5:16 AM 14.7 °F 7.3 °F 11.1 °F 86% 30.05 in 10.0 mi WNW 4.6 mph - N/A   Overcast
5:36 AM 14.7 °F 7.3 °F 10.9 °F 85% 30.05 in 10.0 mi NW 4.6 mph - N/A   Mostly Cloudy
5:55 AM 14.9 °F 9.2 °F 11.1 °F 85% 30.06 in 10.0 mi WNW 3.5 mph - N/A   Overcast
6:16 AM 14.9 °F 9.2 °F 10.9 °F 84% 30.07 in 10.0 mi NW 3.5 mph - N/A   Overcast
6:36 AM 14.9 °F 6.1 °F 10.4 °F 82% 30.07 in 10.0 mi WNW 5.8 mph - N/A   Overcast
6:55 AM 14.9 °F 7.5 °F 9.9 °F 80% 30.07 in 10.0 mi WNW 4.6 mph - N/A   Overcast
7:16 AM 14.4 °F 5.5 °F 9.5 °F 81% 30.07 in 10.0 mi WNW 5.8 mph - N/A   Overcast
7:36 AM 14.4 °F 8.6 °F 9.5 °F 81% 30.07 in 10.0 mi WNW 3.5 mph - N/A   Overcast
7:55 AM 13.8 °F 6.2 °F 9.5 °F 83% 30.06 in 10.0 mi NNW 4.6 mph - N/A   Overcast
8:15 AM 13.6 °F 6.0 °F 9.3 °F 83% 30.07 in 10.0 mi NNW 4.6 mph - N/A   Scattered Clouds
8:36 AM 13.1 °F 2.8 °F 8.8 °F 83% 30.08 in 10.0 mi NW 6.9 mph - N/A   Scattered Clouds
8:55 AM 13.6 °F 6.0 °F 9.1 °F 82% 30.08 in 10.0 mi NNW 4.6 mph - N/A   Scattered Clouds
9:15 AM 14.9 °F 7.5 °F 9.5 °F 79% 30.10 in 10.0 mi NW 4.6 mph - N/A   Mostly Cloudy
9:36 AM 14.7 °F 7.3 °F 9.3 °F 79% 30.10 in 10.0 mi NNW 4.6 mph - N/A   Overcast
9:55 AM 15.4 °F 9.8 °F 8.8 °F 75% 30.09 in 10.0 mi NNW 3.5 mph - N/A   Scattered Clouds
10:16 AM 16.0 °F 6.3 °F 9.0 °F 74% 30.10 in 10.0 mi NNW 6.9 mph - N/A   Mostly Cloudy
10:35 AM 15.8 °F 8.6 °F 9.3 °F 76% 30.10 in 10.0 mi NW 4.6 mph - N/A   Overcast
10:55 AM 15.8 °F 6.1 °F 9.1 °F 75% 30.09 in 10.0 mi NW 6.9 mph - N/A   Scattered Clouds
11:15 AM 16.5 °F 9.4 °F 9.3 °F 73% 30.09 in 10.0 mi NW 4.6 mph - N/A   Clear
11:35 AM 16.7 °F 11.2 °F 9.3 °F 73% 30.09 in 10.0 mi NW 3.5 mph - N/A   Mostly Cloudy
11:55 AM 17.1 °F 11.7 °F 9.1 °F 71% 30.09 in 10.0 mi WNW 3.5 mph - N/A   Overcast
12:15 PM 17.6 °F 10.7 °F 8.6 °F 68% 30.07 in 10.0 mi NNW 4.6 mph - N/A   Mostly Cloudy
12:36 PM 17.6 °F - 9.0 °F 69% 30.06 in 10.0 mi Calm Calm - N/A   Mostly Cloudy
12:55 PM 18.3 °F 13.1 °F 8.6 °F 66% 30.05 in 10.0 mi WNW 3.5 mph - N/A   Mostly Cloudy
1:15 PM 18.3 °F 10.2 °F 8.8 °F 66% 30.04 in 10.0 mi WNW 5.8 mph - N/A   Scattered Clouds
1:36 PM 18.7 °F 13.5 °F 8.6 °F 65% 30.03 in 10.0 mi NW 3.5 mph - N/A   Mostly Cloudy
1:55 PM 19.0 °F 13.9 °F 8.4 °F 63% 30.02 in 10.0 mi NNE 3.5 mph - N/A   Overcast
2:15 PM 19.0 °F 12.3 °F 8.6 °F 64% 30.02 in 10.0 mi North 4.6 mph - N/A   Overcast
2:36 PM 19.0 °F 11.1 °F 8.2 °F 63% 30.02 in 10.0 mi North 5.8 mph - N/A   Overcast
2:55 PM 19.0 °F 10.0 °F 8.1 °F 62% 30.01 in 10.0 mi North 6.9 mph - N/A   Overcast
3:16 PM 18.9 °F 10.8 °F 8.4 °F 64% 30.01 in 10.0 mi North 5.8 mph - N/A   Overcast
3:35 PM 18.5 °F 8.4 °F 8.8 °F 66% 30.00 in 10.0 mi North 8.1 mph - N/A   Overcast
3:55 PM 18.3 °F 8.2 °F 9.9 °F 70% 30.00 in 10.0 mi NNW 8.1 mph - N/A   Overcast
4:16 PM 17.6 °F 5.7 °F 9.7 °F 71% 30.00 in 10.0 mi NNW 10.4 mph 16.1 mph N/A   Overcast
4:35 PM 17.1 °F 5.0 °F 9.5 °F 72% 30.00 in 10.0 mi North 10.4 mph - N/A   Overcast
4:55 PM 16.5 °F 3.0 °F 9.5 °F 74% 30.00 in 10.0 mi North 12.7 mph - N/A   Overcast
5:16 PM 15.8 °F 3.4 °F 9.1 °F 75% 29.99 in 10.0 mi North 10.4 mph 18.4 mph N/A   Overcast
5:35 PM 14.9 °F 1.6 °F 8.6 °F 76% 29.99 in 10.0 mi NNW 11.5 mph 19.6 mph N/A   Overcast
5:55 PM 14.5 °F 0.5 °F 8.4 °F 77% 29.98 in 10.0 mi North 12.7 mph 17.3 mph N/A   Overcast
6:16 PM 14.0 °F -0.8 °F 7.5 °F 75% 29.95 in 10.0 mi NNW 13.8 mph 21.9 mph N/A   Overcast
6:35 PM 13.8 °F -0.5 °F 7.7 °F 77% 29.95 in 10.0 mi NNW 12.7 mph 26.5 mph N/A   Overcast
6:55 PM 13.5 °F -0.9 °F 7.5 °F 77% 29.95 in 10.0 mi North 12.7 mph 20.7 mph N/A   Overcast
7:16 PM 13.1 °F -2.0 °F 7.0 °F 77% 29.95 in 10.0 mi NNW 13.8 mph 24.2 mph N/A   Overcast
7:35 PM 12.9 °F -2.8 °F 6.6 °F 76% 29.94 in 10.0 mi North 15.0 mph 23.0 mph N/A   Overcast
7:55 PM 12.9 °F -2.2 °F 6.6 °F 76% 29.92 in 10.0 mi NNW 13.8 mph 25.3 mph N/A   Overcast
8:16 PM 12.7 °F -1.1 °F 6.6 °F 77% 29.92 in 10.0 mi North 11.5 mph 26.5 mph N/A   Overcast
8:35 PM 12.6 °F -2.7 °F 6.6 °F 77% 29.92 in 10.0 mi NNW 13.8 mph 23.0 mph N/A   Overcast
8:56 PM 12.2 °F -2.5 °F 6.6 °F 78% 29.90 in 10.0 mi NNW 12.7 mph 20.7 mph N/A   Overcast
9:15 PM 12.2 °F -1.0 °F 6.6 °F 78% 29.88 in 10.0 mi NNW 10.4 mph 23.0 mph N/A   Overcast
9:35 PM 12.2 °F -3.1 °F 6.6 °F 78% 29.87 in 10.0 mi NNW 13.8 mph 21.9 mph N/A   Overcast
9:56 PM 12.0 °F -3.4 °F 6.1 °F 77% 29.86 in 10.0 mi North 13.8 mph 21.9 mph N/A   Overcast
10:15 PM 12.0 °F -0.4 °F 6.3 °F 78% 29.84 in 10.0 mi NNW 9.2 mph 20.7 mph N/A   Overcast
10:35 PM 12.0 °F -3.4 °F 6.4 °F 78% 29.83 in 10.0 mi North 13.8 mph 21.9 mph N/A   Overcast
10:55 PM 11.7 °F -0.9 °F 6.6 °F 80% 29.82 in 10.0 mi North 9.2 mph 23.0 mph N/A   Overcast
11:15 PM 11.5 °F -1.9 °F 6.6 °F 81% 29.82 in 10.0 mi NNW 10.4 mph 19.6 mph N/A Snow Light Snow
11:35 PM 11.3 °F -6.0 °F 6.3 °F 80% 29.80 in 10.0 mi NNW 17.3 mph 20.7 mph N/A   Overcast
11:56 PM 11.1 °F -3.9 °F 5.9 °F 80% 29.79 in 10.0 mi NNW 12.7 mph 18.4 mph N/A   Overcast